QPF
0.00 0.00 0.00 0.00 0.00 0.00 0.00 0.00 0.00 0.00 0.00 0.00 0.00 0.00 0.00 0.00 0.00 0.00 0.00 0.00 0.00 0.00 0.00 0.00 0.00 0.00 0.00 0.00 0.00 0.00 0.00 0.00 0.00 0.00 0.00 0.00 0.00 0.00 0.00 0.00 0.00 0.00 0.00 0.00
0.00 0.00 0.00 0.00 0.00 0.00 0.00 0.00 0.00 0.00 0.00 0.00 0.00 0.00 0.00 0.00 0.00 0.00 0.00 0.00 0.00 0.00 0.00 0.00 0.00 0.00 0.00 0.00 0.00 0.00 0.00 0.00 0.00 0.00 0.00 0.00 0.00 0.00 0.00 0.00 0.00 0.00 0.00 0.00
0.00 0.00 0.00 0.00 0.00 0.00 0.00 0.00 0.00 0.00 0.00 0.00 0.00 0.00 0.00 0.00 0.00 0.00 0.00 0.00 0.00 0.00 0.00 0.00 0.00 0.00 0.00 0.00 0.00 0.00 0.00 0.00 0.00 0.00 0.00 0.00 0.00 0.00 0.00 0.00 0.00 0.00 0.00 0.00
0.00 0.00 0.00 0.00 0.00 0.00 0.00 0.00 0.00 0.00 0.00 0.00 0.00 0.00 0.00 0.00 0.00 0.00 0.00 0.00 0.00 0.00 0.00 0.00 0.00 0.00 0.00 0.00 0.00 0.00 0.00 0.00 0.00 0.00 0.00 0.00 0.00 0.00 0.00 0.00 0.00 0.00 0.00 0.00
0.00 0.00 0.00 0.00 0.00 0.00 0.00 0.00 0.00 0.00 0.00 0.00 0.00 0.00 0.00 0.00 0.00 0.00 0.00 0.00 0.00 0.00 0.00 0.00 0.00 0.00 0.00 0.00 0.00 0.00 0.00 0.00 0.00 0.00 0.00 0.00 0.00 0.00 0.00 0.00 0.00 0.00 0.00 0.00
0.00 0.00 0.00 0.00 0.00 0.00 0.00 0.00 0.00 0.00 0.00 0.00 0.00 0.00 0.00 0.00 0.00 0.00 0.00 0.00 0.00 0.00 0.00 0.00 0.00 0.00 0.00 0.00 0.00 0.00 0.00 0.00 0.00 0.00 0.00 0.00 0.00 0.00 0.00 0.00 0.00 0.00 0.00 0.00
0.00 0.00 0.00 0.00 0.00 0.00 0.00 0.00 0.00 0.00 0.00 0.00 0.00 0.00 0.00 0.00 0.00 0.00 0.00 0.00 0.00 0.00 0.00 0.00 0.00 0.00 0.00 0.00 0.00 0.00 0.00 0.00 0.00 0.00 0.00 0.00 0.00 0.00 0.00 0.00 0.00 0.00 0.00 0.00
0.00 0.00 0.00 0.00 0.00 0.00 0.00 0.00 0.00 0.00 0.00 0.00 0.00 0.00 0.00 0.00 0.00 0.00 0.00 0.00 0.00 0.00 0.00 0.00 0.00 0.00 0.00 0.00 0.00 0.00 0.00 0.00 0.00 0.00 0.00 0.00 0.00 0.00 0.00 0.00 0.00 0.00 0.00 0.00
0.00 0.00 0.00 0.00 0.00 0.00 0.00 0.00 0.00 0.00 0.00 0.00 0.00 0.00 0.00 0.00 0.00 0.00 0.00 0.00 0.00 0.00 0.00 0.00 0.00 0.00 0.00 0.00 0.00 0.00 0.00 0.00 0.00 0.00 0.00 0.00 0.00 0.00 0.00 0.00 0.00 0.00 0.00 0.00
0.00 0.00 0.00 0.00 0.00 0.00 0.00 0.00 0.00 0.00 0.00 0.00 0.00 0.00 0.00 0.00 0.00 0.00 0.00 0.00 0.00 0.00 0.00 0.00 0.00 0.00 0.00 0.00 0.00 0.00 0.00 0.00 0.00 0.00 0.00 0.00 0.00 0.00 0.00 0.00 0.00 0.00 0.00 0.00
0.00 0.00 0.00 0.00 0.00 0.00 0.00 0.00 0.00 0.00 0.00 0.00 0.00 0.00 0.00 0.00 0.00 0.00 0.00 0.00 0.00 0.00 0.00 0.00 0.00 0.00 0.00 0.00 0.00 0.00 0.00 0.00 0.00 0.00 0.00 0.00 0.00 0.00 0.00 0.00 0.00 0.00 0.00 0.00
0.00 0.00 0.00 0.00 0.00 0.00 0.00 0.00 0.00 0.00 0.00 0.00 0.00 0.00 0.00 0.00 0.00 0.00 0.00 0.00 0.00 0.00 0.00 0.00 0.00 0.00 0.00 0.00 0.00 0.00 0.00 0.00 0.00 0.00 0.00 0.00 0.00 0.00 0.00 0.00 0.00 0.00 0.00 0.00
0.00 0.00 0.00 0.00 0.00 0.00 0.00 0.00 0.00 0.00 0.00 0.00 0.00 0.00 0.00 0.00 0.00 0.00 0.00 0.00 0.00 0.00 0.00 0.00 0.00 0.00 0.00 0.00 0.00 0.00 0.00 0.00 0.00 0.00 0.00 0.00 0.00 0.00 0.00 0.00 0.00 0.00 0.00 0.00
0.00 0.00 0.00 0.00 0.00 0.00 0.00 0.00 0.00 0.00 0.00 0.00 0.00 0.00 0.00 0.00 0.00 0.00 0.00 0.00 0.00 0.00 0.00 0.00 0.00 0.00 0.00 0.00 0.00 0.00 0.00 0.00 0.00 0.00 0.00 0.00 0.00 0.00 0.00 0.00 0.00 0.00 0.00 0.00
0.00 0.00 0.00 0.00 0.00 0.00 0.00 0.00 0.00 0.00 0.00 0.00 0.00 0.00 0.00 0.00 0.00 0.00 0.00 0.00 0.00 0.00 0.00 0.00 0.00 0.00 0.00 0.00 0.00 0.00 0.00 0.00 0.00 0.00 0.00 0.00 0.00 0.00 0.00 0.00 0.00 0.00 0.00 0.00
0.00 0.00 0.00 0.00 0.00 0.00 0.00 0.00 0.00 0.00 0.00 0.00 0.00 0.00 0.00 0.00 0.00 0.00 0.00 0.00 0.00 0.00 0.00 0.00 0.00 0.00 0.00 0.00 0.00 0.00 0.00 0.00 0.00 0.00 0.00 0.00 0.00 0.00 0.00 0.00 0.00 0.00 0.00 0.00
0.00 0.00 0.00 0.00 0.00 0.00 0.00 0.00 0.00 0.00 0.00 0.00 0.00 0.00 0.00 0.00 0.00 0.00 0.00 0.00 0.00 0.00 0.00 0.00 0.00 0.00 0.00 0.00 0.00 0.00 0.00 0.00 0.00 0.00 0.00 0.00 0.00 0.00 0.00 0.00 0.00 0.00 0.00 0.00
0.00 0.00 0.00 0.00 0.00 0.00 0.00 0.00 0.00 0.00 0.00 0.00 0.00 0.00 0.00 0.00 0.00 0.00 0.00 0.00 0.00 0.00 0.00 0.00 0.00 0.00 0.00 0.00 0.00 0.00 0.00 0.00 0.00 0.00 0.00 0.00 0.00 0.00 0.00 0.00 0.00 0.00 0.00 0.00
0.00 0.00 0.00 0.00 0.00 0.00 0.00 0.00 0.00 0.00 0.00 0.00 0.00 0.00 0.00 0.00 0.00 0.00 0.00 0.00 0.00 0.00 0.00 0.00 0.00 0.00 0.00 0.00 0.00 0.00 0.00 0.00 0.00 0.00 0.00 0.00 0.00 0.00 0.00 0.00 0.00 0.00 0.00 0.00
0.00 0.00 0.00 0.00 0.00 0.00 0.00 0.00 0.00 0.00 0.00 0.00 0.00 0.00 0.00 0.00 0.00 0.00 0.00 0.00 0.00 0.00 0.00 0.00 0.00 0.00 0.00 0.00 0.00 0.00 0.00 0.00 0.00 0.00 0.00 0.00 0.00 0.00 0.00 0.00 0.00 0.00 0.00 0.00
0.00 0.00 0.00 0.00 0.00 0.00 0.00 0.00 0.00 0.00 0.00 0.00 0.00 0.00 0.00 0.00 0.00 0.00 0.00 0.00 0.00 0.00 0.00 0.00 0.00 0.00 0.00 0.00 0.00 0.00 0.00 0.00 0.00 0.00 0.00 0.00 0.00 0.00 0.00 0.00 0.00 0.00 0.00 0.00
0.00 0.00 0.00 0.00 0.00 0.00 0.00 0.00 0.00 0.00 0.00 0.00 0.00 0.00 0.00 0.00 0.00 0.00 0.00 0.00 0.00 0.00 0.00 0.00 0.00 0.00 0.00 0.00 0.00 0.00 0.00 0.00 0.00 0.00 0.00 0.00 0.00 0.00 0.00 0.00 0.00 0.00 0.00 0.00
0.00 0.00 0.00 0.00 0.00 0.00 0.00 0.00 0.00 0.00 0.00 0.00 0.00 0.00 0.00 0.00 0.00 0.00 0.00 0.00 0.00 0.00 0.00 0.00 0.00 0.00 0.00 0.00 0.00 0.00 0.00 0.00 0.00 0.00 0.00 0.00 0.00 0.00 0.00 0.00 0.00 0.00 0.00 0.00
0.00 0.00 0.00 0.00 0.00 0.00 0.00 0.00 0.00 0.00 0.00 0.00 0.00 0.00 0.00 0.00 0.00 0.00 0.00 0.00 0.00 0.00 0.00 0.00 0.00 0.00 0.00 0.00 0.00 0.00 0.00 0.00 0.00 0.00 0.00 0.00 0.00 0.00 0.00 0.00 0.00 0.00 0.00 0.02
0.00 0.00 0.00 0.00 0.00 0.00 0.00 0.00 0.00 0.00 0.00 0.00 0.00 0.00 0.00 0.00 0.00 0.00 0.00 0.00 0.00 0.00 0.00 0.00 0.00 0.00 0.00 0.00 0.00 0.00 0.00 0.00 0.00 0.00 0.00 0.00 0.00 0.00 0.00 0.00 0.00 0.00 0.00 0.02
0.00 0.00 0.00 0.00 0.00 0.00 0.00 0.00 0.00 0.00 0.00 0.00 0.00 0.00 0.00 0.00 0.00 0.00 0.00 0.00 0.00 0.00 0.00 0.00 0.00 0.00 0.00 0.00 0.00 0.00 0.00 0.00 0.00 0.00 0.00 0.00 0.00 0.00 0.00 0.00 0.00 0.00 0.00 0.00
MSLP
1024.24 1025.07 1025.83 1026.48 1026.99 1027.38 1027.68 1027.93 1028.18 1028.49 1028.87 1029.36 1029.93 1030.56 1031.22 1031.86 1032.46 1032.99 1033.44 1033.84 1034.19 1034.52 1034.85 1035.19 1035.54 1035.87 1036.16 1036.38 1036.49 1036.47 1036.32 1036.05 1035.68 1035.25 1034.80 1034.35 1033.91 1033.50 1033.10 1032.68 1032.22 1031.71 1031.13 1030.50
1024.98 1025.60 1026.13 1026.55 1026.87 1027.11 1027.32 1027.52 1027.78 1028.11 1028.53 1029.03 1029.60 1030.22 1030.84 1031.44 1032.01 1032.53 1033.00 1033.44 1033.86 1034.27 1034.67 1035.07 1035.46 1035.81 1036.11 1036.31 1036.42 1036.41 1036.28 1036.05 1035.73 1035.35 1034.93 1034.50 1034.05 1033.60 1033.14 1032.65 1032.12 1031.54 1030.93 1030.29
1025.63 1026.05 1026.37 1026.60 1026.76 1026.90 1027.04 1027.22 1027.48 1027.82 1028.23 1028.71 1029.23 1029.77 1030.32 1030.86 1031.39 1031.90 1032.41 1032.93 1033.44 1033.96 1034.47 1034.95 1035.39 1035.76 1036.05 1036.25 1036.34 1036.33 1036.23 1036.03 1035.77 1035.44 1035.06 1034.65 1034.19 1033.70 1033.16 1032.59 1031.98 1031.34 1030.68 1030.02
1026.17 1026.42 1026.57 1026.66 1026.72 1026.80 1026.91 1027.10 1027.36 1027.69 1028.06 1028.47 1028.89 1029.31 1029.73 1030.18 1030.65 1031.16 1031.72 1032.33 1032.98 1033.63 1034.26 1034.84 1035.34 1035.74 1036.03 1036.21 1036.28 1036.26 1036.17 1036.00 1035.78 1035.50 1035.16 1034.76 1034.30 1033.76 1033.16 1032.50 1031.81 1031.09 1030.38 1029.69
1026.62 1026.73 1026.77 1026.77 1026.79 1026.85 1026.99 1027.20 1027.47 1027.77 1028.08 1028.38 1028.65 1028.91 1029.17 1029.49 1029.89 1030.39 1031.00 1031.72 1032.50 1033.31 1034.09 1034.78 1035.35 1035.79 1036.07 1036.22 1036.26 1036.22 1036.11 1035.96 1035.76 1035.52 1035.21 1034.83 1034.35 1033.78 1033.12 1032.39 1031.62 1030.83 1030.06 1029.32
1027.00 1027.01 1026.97 1026.94 1026.96 1027.07 1027.27 1027.52 1027.82 1028.09 1028.32 1028.48 1028.58 1028.64 1028.72 1028.89 1029.20 1029.68 1030.34 1031.16 1032.09 1033.06 1033.99 1034.80 1035.45 1035.91 1036.19 1036.30 1036.29 1036.20 1036.06 1035.90 1035.71 1035.48 1035.20 1034.83 1034.35 1033.76 1033.07 1032.28 1031.45 1030.59 1029.75 1028.94
1027.31 1027.25 1027.18 1027.16 1027.24 1027.42 1027.70 1028.03 1028.35 1028.61 1028.75 1028.77 1028.69 1028.55 1028.44 1028.45 1028.66 1029.11 1029.80 1030.72 1031.79 1032.91 1033.98 1034.90 1035.63 1036.12 1036.38 1036.45 1036.38 1036.23 1036.03 1035.83 1035.63 1035.40 1035.13 1034.77 1034.30 1033.71 1032.99 1032.18 1031.30 1030.38 1029.47 1028.59
1027.56 1027.46 1027.39 1027.41 1027.56 1027.84 1028.22 1028.63 1028.99 1029.23 1029.29 1029.19 1028.93 1028.61 1028.33 1028.19 1028.30 1028.71 1029.44 1030.43 1031.61 1032.86 1034.06 1035.09 1035.88 1036.40 1036.64 1036.67 1036.53 1036.30 1036.03 1035.77 1035.53 1035.29 1035.01 1034.66 1034.21 1033.63 1032.92 1032.09 1031.18 1030.22 1029.25 1028.29
1027.76 1027.63 1027.57 1027.65 1027.87 1028.25 1028.72 1029.19 1029.59 1029.81 1029.82 1029.61 1029.22 1028.75 1028.32 1028.08 1028.11 1028.49 1029.24 1030.29 1031.56 1032.91 1034.21 1035.32 1036.16 1036.70 1036.93 1036.91 1036.70 1036.39 1036.05 1035.72 1035.43 1035.16 1034.87 1034.53 1034.09 1033.53 1032.84 1032.02 1031.11 1030.12 1029.10 1028.06
1027.90 1027.77 1027.73 1027.84 1028.13 1028.57 1029.09 1029.61 1030.02 1030.23 1030.19 1029.90 1029.42 1028.86 1028.35 1028.03 1028.02 1028.39 1029.15 1030.24 1031.57 1032.99 1034.36 1035.53 1036.41 1036.96 1037.18 1037.12 1036.86 1036.49 1036.08 1035.69 1035.34 1035.03 1034.72 1034.38 1033.96 1033.42 1032.76 1031.97 1031.06 1030.07 1029.02 1027.93
1028.01 1027.88 1027.85 1027.99 1028.29 1028.74 1029.27 1029.78 1030.17 1030.34 1030.26 1029.93 1029.42 1028.82 1028.28 1027.95 1027.94 1028.32 1029.10 1030.23 1031.59 1033.05 1034.45 1035.65 1036.56 1037.12 1037.34 1037.26 1036.98 1036.56 1036.10 1035.66 1035.26 1034.91 1034.58 1034.23 1033.82 1033.30 1032.67 1031.91 1031.03 1030.05 1029.00 1027.89
1028.12 1028.00 1027.98 1028.09 1028.37 1028.77 1029.23 1029.67 1029.99 1030.11 1029.99 1029.64 1029.12 1028.55 1028.05 1027.76 1027.80 1028.22 1029.03 1030.18 1031.55 1033.02 1034.42 1035.63 1036.54 1037.11 1037.35 1037.28 1036.99 1036.57 1036.09 1035.62 1035.19 1034.81 1034.45 1034.09 1033.68 1033.18 1032.57 1031.85 1031.01 1030.06 1029.03 1027.92
1028.27 1028.17 1028.14 1028.20 1028.39 1028.67 1029.00 1029.31 1029.50 1029.53 1029.36 1029.00 1028.53 1028.03 1027.63 1027.44 1027.57 1028.06 1028.91 1030.07 1031.44 1032.88 1034.26 1035.44 1036.35 1036.93 1037.18 1037.15 1036.90 1036.50 1036.04 1035.57 1035.13 1034.73 1034.35 1033.97 1033.55 1033.06 1032.47 1031.78 1030.98 1030.08 1029.09 1028.03
1028.52 1028.45 1028.38 1028.36 1028.41 1028.52 1028.65 1028.75 1028.78 1028.68 1028.45 1028.10 1027.69 1027.30 1027.04 1027.00 1027.26 1027.84 1028.74 1029.91 1031.24 1032.64 1033.96 1035.10 1035.99 1036.57 1036.86 1036.87 1036.68 1036.35 1035.94 1035.51 1035.08 1034.67 1034.28 1033.88 1033.45 1032.95 1032.38 1031.71 1030.95 1030.11 1029.18 1028.18
1028.90 1028.84 1028.73 1028.60 1028.48 1028.36 1028.24 1028.10 1027.92 1027.67 1027.36 1027.03 1026.70 1026.46 1026.36 1026.50 1026.91 1027.60 1028.56 1029.72 1031.02 1032.34 1033.58 1034.66 1035.50 1036.08 1036.40 1036.48 1036.37 1036.12 1035.79 1035.41 1035.02 1034.63 1034.24 1033.82 1033.37 1032.87 1032.30 1031.66 1030.94 1030.15 1029.28 1028.37
1029.37 1029.33 1029.17 1028.91 1028.59 1028.22 1027.83 1027.42 1027.01 1026.61 1026.23 1025.90 1025.68 1025.59 1025.69 1026.02 1026.59 1027.40 1028.41 1029.58 1030.81 1032.05 1033.19 1034.18 1034.97 1035.53 1035.87 1036.02 1035.99 1035.84 1035.60 1035.30 1034.96 1034.60 1034.21 1033.79 1033.33 1032.82 1032.25 1031.63 1030.94 1030.20 1029.41 1028.57
1029.87 1029.83 1029.61 1029.21 1028.69 1028.08 1027.42 1026.75 1026.12 1025.57 1025.13 1024.83 1024.71 1024.79 1025.09 1025.62 1026.36 1027.29 1028.35 1029.51 1030.68 1031.82 1032.85 1033.74 1034.45 1034.99 1035.34 1035.53 1035.59 1035.53 1035.38 1035.17 1034.89 1034.57 1034.20 1033.78 1033.31 1032.80 1032.23 1031.62 1030.96 1030.27 1029.53 1028.75
1030.26 1030.22 1029.92 1029.39 1028.69 1027.85 1026.95 1026.07 1025.26 1024.60 1024.12 1023.87 1023.87 1024.12 1024.61 1025.34 1026.24 1027.27 1028.39 1029.53 1030.64 1031.67 1032.59 1033.37 1034.01 1034.50 1034.85 1035.08 1035.20 1035.22 1035.16 1035.02 1034.81 1034.52 1034.18 1033.77 1033.30 1032.79 1032.22 1031.63 1030.99 1030.33 1029.63 1028.90
1030.40 1030.32 1029.95 1029.31 1028.45 1027.44 1026.37 1025.32 1024.40 1023.67 1023.20 1023.02 1023.15 1023.56 1024.25 1025.15 1026.19 1027.33 1028.49 1029.61 1030.66 1031.60 1032.42 1033.10 1033.66 1034.10 1034.43 1034.68 1034.84 1034.92 1034.93 1034.85 1034.69 1034.44 1034.12 1033.72 1033.27 1032.76 1032.20 1031.62 1031.00 1030.36 1029.68 1028.98
1030.15 1030.01 1029.57 1028.84 1027.87 1026.75 1025.58 1024.45 1023.48 1022.75 1022.33 1022.25 1022.52 1023.10 1023.95 1025.00 1026.17 1027.39 1028.58 1029.69 1030.69 1031.55 1032.28 1032.88 1033.37 1033.76 1034.08 1034.33 1034.52 1034.64 1034.68 1034.65 1034.52 1034.30 1034.00 1033.62 1033.18 1032.68 1032.14 1031.57 1030.96 1030.33 1029.67 1028.96
1029.43 1029.21 1028.70 1027.91 1026.89 1025.73 1024.53 1023.41 1022.47 1021.82 1021.49 1021.54 1021.94 1022.67 1023.66 1024.83 1026.10 1027.37 1028.58 1029.69 1030.65 1031.46 1032.12 1032.66 1033.10 1033.47 1033.77 1034.02 1034.22 1034.36 1034.42 1034.40 1034.29 1034.09 1033.80 1033.44 1033.00 1032.52 1032.00 1031.44 1030.85 1030.23 1029.56 1028.84
1028.22 1027.92 1027.35 1026.52 1025.50 1024.38 1023.24 1022.21 1021.39 1020.85 1020.67 1020.85 1021.39 1022.24 1023.34 1024.59 1025.92 1027.22 1028.44 1029.53 1030.46 1031.24 1031.87 1032.39 1032.80 1033.16 1033.46 1033.71 1033.91 1034.06 1034.12 1034.11 1034.00 1033.80 1033.52 1033.16 1032.75 1032.28 1031.78 1031.24 1030.66 1030.04 1029.36 1028.63
1026.61 1026.21 1025.59 1024.77 1023.81 1022.78 1021.78 1020.91 1020.26 1019.90 1019.88 1020.21 1020.87 1021.82 1022.98 1024.27 1025.61 1026.91 1028.11 1029.18 1030.10 1030.86 1031.49 1032.00 1032.43 1032.79 1033.11 1033.37 1033.58 1033.72 1033.79 1033.76 1033.65 1033.45 1033.16 1032.81 1032.41 1031.97 1031.48 1030.97 1030.40 1029.79 1029.11 1028.37
1024.71 1024.22 1023.57 1022.79 1021.93 1021.06 1020.26 1019.60 1019.17 1019.02 1019.18 1019.65 1020.41 1021.42 1022.60 1023.89 1025.19 1026.45 1027.62 1028.66 1029.56 1030.32 1030.96 1031.49 1031.95 1032.35 1032.69 1032.98 1033.20 1033.35 1033.41 1033.37 1033.25 1033.04 1032.76 1032.42 1032.03 1031.61 1031.15 1030.66 1030.12 1029.52 1028.84 1028.09
1022.67 1022.09 1021.44 1020.73 1020.02 1019.35 1018.79 1018.39 1018.21 1018.28 1018.62 1019.22 1020.06 1021.09 1022.25 1023.48 1024.72 1025.91 1027.01 1028.00 1028.88 1029.64 1030.30 1030.88 1031.38 1031.83 1032.21 1032.53 1032.77 1032.93 1032.99 1032.96 1032.83 1032.62 1032.35 1032.02 1031.65 1031.26 1030.83 1030.37 1029.85 1029.27 1028.62 1027.87
1020.61 1019.97 1019.34 1018.74 1018.21 1017.77 1017.47 1017.35 1017.43 1017.72 1018.23 1018.94 1019.83 1020.85 1021.95 1023.10 1024.24 1025.33 1026.35 1027.28 1028.13 1028.89 1029.57 1030.19 1030.75 1031.24 1031.68 1032.04 1032.31 1032.49 1032.56 1032.54 1032.42 1032.22 1031.96 1031.65 1031.32 1030.96 1030.57 1030.14 1029.67 1029.11 1028.48 1027.76
Thickness
5679 5666 5652 5655 5655 5655 5650 5642 5636 5631 5622 5612 5605 5604 5599 5585 5575 5563 5553 5545 5537 5529 5520 5508 5496 5483 5470 5456 5443 5431 5419 5406 5392 5377 5361 5347 5332 5317 5304 5290 5277 5267 5259 5253
5667 5658 5657 5658 5657 5653 5646 5640 5635 5628 5623 5617 5610 5604 5599 5585 5577 5567 5557 5546 5536 5526 5514 5502 5489 5475 5460 5446 5433 5420 5406 5392 5377 5361 5344 5329 5316 5303 5290 5276 5264 5253 5244 5238
5664 5658 5660 5657 5652 5651 5646 5643 5637 5630 5621 5613 5608 5613 5598 5587 5578 5569 5557 5547 5534 5523 5509 5496 5483 5468 5452 5437 5422 5409 5394 5379 5363 5347 5331 5317 5306 5292 5279 5268 5255 5243 5233 5225
5656 5658 5660 5655 5649 5648 5644 5644 5638 5626 5615 5604 5604 5601 5611 5583 5573 5566 5555 5541 5528 5519 5504 5490 5476 5461 5444 5428 5412 5397 5382 5366 5349 5333 5317 5302 5290 5278 5265 5253 5242 5231 5221 5213
5655 5656 5655 5653 5650 5647 5644 5641 5633 5623 5614 5603 5594 5589 5603 5575 5569 5566 5553 5537 5524 5511 5497 5483 5469 5453 5436 5418 5402 5386 5370 5354 5337 5320 5304 5290 5276 5263 5252 5241 5231 5222 5212 5201
5655 5657 5653 5651 5649 5645 5641 5633 5622 5609 5601 5603 5601 5590 5597 5574 5573 5570 5555 5535 5520 5505 5490 5477 5461 5444 5426 5408 5392 5376 5360 5343 5327 5310 5294 5280 5266 5254 5243 5232 5222 5212 5202 5189
5656 5655 5651 5649 5647 5642 5635 5626 5615 5614 5605 5604 5594 5588 5596 5598 5574 5566 5552 5531 5514 5498 5482 5468 5453 5434 5416 5399 5383 5367 5351 5334 5318 5301 5285 5271 5257 5243 5230 5219 5209 5198 5188 5175
5651 5645 5650 5646 5644 5637 5630 5626 5610 5602 5592 5591 5590 5586 5600 5587 5571 5558 5545 5527 5508 5491 5476 5462 5445 5426 5407 5392 5376 5359 5342 5325 5309 5293 5278 5263 5249 5235 5221 5208 5195 5183 5170 5156
5645 5645 5648 5645 5641 5638 5628 5610 5609 5591 5585 5578 5584 5589 5595 5574 5565 5550 5534 5516 5501 5486 5471 5454 5436 5418 5400 5384 5368 5351 5334 5317 5301 5285 5271 5258 5243 5229 5215 5202 5188 5174 5159 5144
5644 5640 5646 5643 5640 5632 5624 5608 5593 5588 5585 5578 5583 5583 5591 5593 5567 5547 5529 5512 5497 5481 5463 5446 5428 5410 5394 5377 5360 5343 5327 5309 5293 5278 5264 5252 5238 5224 5210 5197 5184 5169 5154 5139
5639 5635 5640 5639 5634 5630 5619 5610 5597 5579 5579 5573 5566 5592 5604 5596 5579 5554 5535 5513 5494 5476 5458 5439 5421 5404 5387 5370 5353 5337 5320 5303 5288 5273 5260 5247 5234 5221 5207 5193 5180 5166 5151 5137
5632 5626 5627 5635 5633 5630 5625 5616 5598 5595 5585 5565 5557 5590 5607 5588 5572 5553 5533 5511 5491 5472 5452 5433 5415 5399 5381 5364 5348 5332 5315 5299 5284 5270 5257 5244 5231 5218 5205 5192 5179 5165 5150 5136
5632 5628 5630 5637 5631 5625 5621 5616 5603 5589 5576 5550 5547 5596 5598 5573 5561 5546 5525 5504 5485 5465 5445 5427 5411 5394 5376 5359 5343 5327 5311 5295 5281 5268 5254 5242 5230 5217 5205 5192 5179 5166 5152 5138
5630 5625 5627 5636 5636 5630 5624 5615 5600 5590 5580 5568 5566 5597 5609 5580 5558 5538 5517 5497 5478 5460 5444 5425 5407 5390 5372 5355 5339 5323 5308 5293 5279 5266 5253 5241 5229 5217 5204 5192 5180 5167 5154 5141
5629 5626 5626 5625 5625 5621 5619 5617 5603 5592 5591 5587 5594 5591 5609 5596 5566 5542 5515 5493 5474 5456 5441 5425 5406 5386 5368 5352 5336 5321 5306 5291 5278 5265 5252 5240 5229 5217 5205 5193 5181 5169 5156 5143
5620 5626 5624 5626 5628 5620 5616 5618 5608 5599 5594 5587 5589 5599 5608 5575 5556 5533 5511 5495 5477 5459 5443 5425 5406 5387 5368 5351 5335 5319 5305 5291 5277 5264 5251 5240 5229 5218 5206 5195 5183 5171 5159 5147
5615 5622 5625 5620 5623 5626 5633 5641 5620 5613 5602 5600 5601 5612 5600 5576 5552 5532 5514 5498 5480 5460 5442 5424 5405 5386 5367 5350 5334 5319 5305 5291 5277 5264 5251 5240 5229 5219 5208 5197 5185 5174 5163 5151
5615 5615 5608 5607 5621 5637 5658 5647 5637 5629 5624 5606 5606 5609 5591 5575 5552 5532 5514 5498 5478 5459 5442 5423 5403 5385 5367 5350 5334 5320 5305 5291 5277 5264 5252 5241 5231 5220 5210 5199 5188 5177 5167 5156
5611 5611 5603 5600 5611 5624 5647 5643 5631 5626 5628 5626 5612 5610 5579 5547 5542 5527 5511 5497 5479 5458 5439 5420 5402 5384 5367 5350 5335 5320 5306 5291 5277 5265 5254 5244 5233 5223 5213 5202 5192 5182 5172 5163
5597 5597 5589 5589 5612 5621 5652 5639 5628 5625 5622 5632 5614 5603 5561 5549 5548 5545 5517 5495 5473 5454 5437 5418 5400 5383 5367 5351 5335 5321 5306 5292 5279 5267 5257 5247 5236 5226 5216 5206 5196 5186 5177 5170
5594 5589 5586 5582 5594 5622 5644 5628 5625 5622 5633 5641 5619 5598 5565 5558 5559 5541 5515 5492 5471 5452 5434 5417 5400 5384 5368 5352 5337 5323 5308 5294 5282 5271 5260 5251 5240 5229 5221 5210 5201 5191 5183 5174
5608 5591 5582 5579 5585 5621 5641 5620 5627 5643 5645 5635 5616 5596 5576 5563 5541 5526 5509 5491 5471 5452 5433 5416 5400 5385 5370 5354 5338 5324 5311 5298 5285 5274 5263 5254 5244 5234 5226 5215 5207 5199 5190 5182
5618 5630 5620 5623 5646 5657 5643 5647 5649 5644 5637 5627 5613 5596 5577 5557 5540 5525 5507 5488 5470 5451 5433 5416 5401 5386 5371 5356 5341 5326 5314 5300 5287 5275 5265 5256 5248 5239 5230 5221 5214 5206 5199 5192
5621 5619 5619 5617 5649 5654 5644 5643 5644 5636 5632 5626 5611 5593 5577 5560 5544 5525 5508 5488 5469 5452 5434 5417 5401 5387 5373 5358 5344 5329 5316 5302 5289 5277 5267 5259 5250 5243 5235 5228 5221 5213 5208 5203
5640 5614 5616 5625 5649 5648 5658 5653 5654 5644 5630 5618 5604 5591 5579 5564 5544 5527 5509 5491 5472 5455 5437 5419 5404 5391 5377 5362 5347 5333 5319 5305 5292 5280 5270 5261 5253 5244 5238 5232 5225 5220 5214 5208
5633 5634 5634 5657 5666 5656 5669 5670 5656 5642 5630 5617 5601 5586 5575 5564 5548 5529 5512 5495 5475 5457 5439 5422 5406 5393 5379 5364 5350 5336 5321 5308 5294 5284 5274 5264 5256 5249 5241 5234 5229 5224 5219 5214